Flag for U.S.A. Weather past 2 weeks in Hereford, Texas, U.S.A.

Now
45 °F

Sunny.


Feels Like: 43 °F
Forecast: 29 / 46 °F
Wind: 3 mph from Northwest

Location: Clovis Municipal

Current Time: Dec 19, 2014 at 3:22:13 PM

Latest Report: Dec 19, 2014 at 2:55 PM


Visibility: 10 mi

Pressure: 30.08 "Hg

Humidity: 57%

Dew point: 30 °F

Location of HerefordLocation

Historic Weather in Hereford — Graph

°F

Hereford temperature yesterday

Maximum temperature yesterday: 54 °F (at 12:35 PM)
Minimum temperature yesterday: 30 °F (at 7:55 AM)
Average temperature yesterday: 41 °F

Past Weeks' High & Low Weather Summary

 TemperatureHumidityPressure
High70 °F (Dec 12, 2:15 PM)100% (Dec 5, 3:15 AM)30.50 "Hg (Dec 5, 3:15 AM)
Low23 °F (Dec 15, 6:35 AM)23% (Dec 12, 3:15 PM)29.66 "Hg (Dec 14, 2:35 PM)
Average45 °F65%30.13 "Hg
* Reported Dec 4 2:15 PM — Dec 19 2:15 PM, Hereford, Weather by CustomWeather, © 2014

Note: Actual official high and low records may vary slightly from our data, if they occured in-between our weather recording intervals... More about our weather records

Advertising

Hereford weather history for previous 24 hours

 ConditionsComfort  
Time TempWeatherWind HumidityBarometerVisibility
2:15 PM
Dec 19
46 °FPassing clouds.No wind53%30.09 "Hg10 mi
1:55 PM46 °FScattered clouds.No wind57%30.09 "Hg10 mi
1:35 PM45 °FScattered clouds.No wind61%30.09 "Hg10 mi
1:15 PM43 °FPartly sunny.No wind61%30.10 "Hg10 mi
12:55 PM43 °FOvercast.No wind61%30.11 "Hg10 mi
12:35 PM41 °FOvercast.5 mph66%30.13 "Hg10 mi
12:15 PM39 °FOvercast.No wind70%30.14 "Hg10 mi
11:55 AM39 °FOvercast.3 mph75%30.15 "Hg10 mi
11:35 AM37 °FOvercast.No wind75%30.16 "Hg10 mi
11:15 AM37 °FLow clouds.No wind81%30.16 "Hg10 mi
10:55 AM37 °FLow clouds.No wind87%30.17 "Hg10 mi
10:35 AM37 °FLow clouds.6 mph81%30.16 "Hg10 mi
10:15 AM36 °FLow clouds.5 mph87%30.15 "Hg10 mi
9:55 AM36 °FLow clouds.5 mph93%30.15 "Hg10 mi
9:35 AM36 °FLow clouds.6 mph87%30.13 "Hg10 mi
9:15 AM36 °FLow clouds.5 mph87%30.12 "Hg10 mi
8:55 AM36 °FLow clouds.5 mph93%30.12 "Hg9 mi
8:35 AM36 °FLow clouds.No wind93%30.12 "Hg7 mi
8:15 AM36 °FLow clouds.3 mph93%30.12 "Hg1 mi
7:55 AM36 °FLow clouds.9 mph93%30.11 "Hg2 mi
7:35 AM36 °FLow clouds.9 mph93%30.10 "Hg2 mi
7:15 AM36 °FLow clouds.9 mph93%30.09 "Hg1 mi
6:55 AM36 °FLow clouds.10 mph93%30.09 "Hg1 mi
6:35 AM36 °FLow clouds.10 mph93%30.09 "Hg3 mi
6:15 AM36 °FLow clouds.12 mph93%30.09 "Hg5 mi
5:55 AM36 °FLow clouds.9 mph93%30.08 "Hg5 mi
5:35 AM36 °FLow clouds.9 mph93%30.08 "Hg7 mi
5:15 AM36 °FLow clouds.6 mph93%30.09 "Hg7 mi
4:55 AM36 °FLow clouds.5 mph93%30.09 "Hg8 mi
4:35 AM36 °FLow clouds.9 mph93%30.08 "Hg7 mi
4:15 AM36 °FLow clouds.8 mph87%30.08 "Hg6 mi
3:55 AM36 °FLow clouds.5 mph87%30.09 "Hg7 mi
3:35 AM36 °FLow clouds.7 mph87%30.10 "Hg7 mi
3:15 AM36 °FLow clouds.8 mph87%30.10 "Hg8 mi
2:55 AM36 °FLow clouds.8 mph87%30.10 "Hg8 mi
2:35 AM36 °FLow clouds.8 mph87%30.10 "Hg7 mi
2:15 AM36 °FLow clouds.7 mph87%30.10 "Hg7 mi
1:55 AM36 °FLow clouds.8 mph87%30.10 "Hg5 mi
1:35 AM36 °FLow clouds.8 mph87%30.10 "Hg5 mi
1:15 AM36 °FMostly cloudy.9 mph87%30.10 "Hg5 mi
12:55 AM36 °FMostly cloudy.7 mph87%30.11 "Hg5 mi
12:35 AM36 °FMostly cloudy.8 mph87%30.12 "Hg5 mi
12:15 AM36 °FOvercast.9 mph87%30.12 "Hg7 mi
11:55 PM
Dec 18
36 °FMostly cloudy.9 mph81%30.12 "Hg8 mi
11:35 PM36 °FPartly cloudy.5 mph81%30.13 "Hg7 mi
11:15 PM36 °FOvercast.7 mph81%30.12 "Hg8 mi
10:55 PM36 °FPartly cloudy.6 mph81%30.13 "Hg10 mi
10:35 PM36 °FLow clouds.3 mph87%30.13 "Hg10 mi
10:15 PM36 °FOvercast.13 mph81%30.11 "Hg10 mi
9:35 PM37 °FOvercast.7 mph75%30.11 "Hg10 mi
9:15 PM37 °FOvercast.10 mph75%30.09 "Hg10 mi
8:55 PM37 °FOvercast.10 mph75%30.09 "Hg10 mi
8:35 PM37 °FMostly cloudy.9 mph75%30.08 "Hg10 mi
8:15 PM37 °FPassing clouds.9 mph75%30.08 "Hg10 mi
7:55 PM37 °FPassing clouds.10 mph70%30.07 "Hg10 mi
7:35 PM39 °FClear.9 mph65%30.06 "Hg10 mi
7:15 PM39 °FClear.9 mph65%30.06 "Hg10 mi
6:55 PM41 °FClear.9 mph61%30.06 "Hg10 mi
6:35 PM43 °FClear.12 mph61%30.06 "Hg10 mi
6:15 PM45 °FPassing clouds.14 mph53%30.05 "Hg10 mi
5:55 PM48 °FPassing clouds.5 mph32%30.04 "Hg10 mi
5:35 PM52 °FPassing clouds.9 mph30%30.04 "Hg10 mi
5:15 PM52 °FSunny.12 mph30%30.03 "Hg10 mi
4:55 PM54 °FPassing clouds.13 mph28%30.03 "Hg10 mi
4:35 PM54 °FScattered clouds.13 mph28%30.03 "Hg10 mi
4:15 PM54 °FSunny.8 mph28%30.03 "Hg10 mi
3:55 PM54 °FSunny.6 mph30%30.02 "Hg10 mi
3:35 PM54 °FSunny.7 mph28%30.02 "Hg10 mi
3:15 PM54 °FSunny.3 mph33%30.02 "Hg10 mi
Weather by CustomWeather, © 2014

See weather overviewHow to use our weather pages